Regional Weather Roundup
Issued by NWS

Home | Current Version | Previous Version | Text Only | Print | Product List | Glossary Off
Versions: 1 2 3 4 5 6 7 8 9 10 11 12 13 14 15 16 17 18 19 20 21 22 23 24 25 26 27 28 29 30 31 32 33 34 35 36 37 38 39 40 41 42 43 44 45 46 47 48 49 50

000
ASUS45 KBOU 201907
RWRCO

WEATHER ROUNDUP FOR COLORADO
NATIONAL WEATHER SERVICE DENVER/BOULDER CO
100 PM MDT MON APR 20 2015

NOTE: "FAIR" INDICATES FEW OR NO CLOUDS BELOW 12000 FEET WITH NO
SIGNIFICANT WEATHER AND/OR OBSTRUCTIONS TO VISIBILITY.

COZ001>005-013-030-031-202000-
...NORTHWEST COLORADO...

CITY           SKY/WX    TMP DP  RH WIND       PRES   REMARKS
CRAIG          CLOUDY    49  33  54 VRB5      29.99F
HAYDEN         MOSUNNY   46  30  53 W10       29.99F
MEEKER         MOSUNNY   54  33  45 SW9       29.97F
MOUNT WERNER   NOT AVBL
STEAMBOAT SPGS CLOUDY    43  31  61 SW5       29.99F
WALDEN         CLOUDY    39  23  52 W9G16     29.98S
$$

COZ006>008-011-202000-
...WEST CENTRAL VALLEYS...

CITY           SKY/WX    TMP DP  RH WIND       PRES   REMARKS
GRAND JUNCTION MOSUNNY   59  35  40 NW3       29.94F
MONTROSE       MOSUNNY   58  34  40 NW6       29.98F
EAGLE          PTSUNNY   52  30  43 NW6       29.98F
RIFLE          MOSUNNY   58  28  32 W6        29.95F
DELTA          MOSUNNY   60  40  47 SE3       29.96F
NUCLA          MOSUNNY   59  30  33 W7        30.00F
$$

COZ017>023-064>068-202000-
...SOUTHWEST COLORADO...

CITY           SKY/WX    TMP DP  RH WIND       PRES   REMARKS
DURANGO        PTSUNNY   58  20  22 NW18      29.94F
CORTEZ         SUNNY     65  24  21 W12       29.96F
PAGOSA SPRINGS DRIZZLE   48  28  45 N12G22    30.00R
TELLURIDE      PTSUNNY   49  18  29 W18       30.07F
WOLF CREEK PAS LGT SNOW  30  23  74 SW17G24   30.13F WCI  18
$$

COZ009-010-012-014-032>034-037-058>063-202000-
...CENTRAL COLORADO...

CITY           SKY/WX    TMP DP  RH WIND       PRES   REMARKS
ASPEN          PTSUNNY   47  27  45 N8        29.99F
BUENA VISTA    PTSUNNY   46  30  53 W9        29.98F
COPPER MTN     NOT AVBL
BERTHOUD PASS  LGT SNOW  18  10  73 W38G45    30.01F VSB 3/4 WCI  -4
COTTONWOOD PAS MOSUNNY   41  23  48 W9G23     30.02F
GUNNISON       MOSUNNY   46  30  53 NE7       30.02F
KREMMLING      CLOUDY    46  27  46 NW10      29.99F
LEADVILLE      FLURRIES  32  22  66 N14G22    30.02F WCI  22
MONARCH PASS   CLOUDY    27  23  86 MISG      30.18S FOG
SALIDA         PTSUNNY   50  29  43 W15       30.05R
SUNLIGHT       MOSUNNY   34  28  80 CALM      30.11F
WILKERSON PASS PTSUNNY   32  18  55 W6        30.06F WCI  26
$$

COZ069>075-202000-
...SAN LUIS VALLEY/SANGRE DE CRISTO MOUNTAINS...

CITY           SKY/WX    TMP DP  RH WIND       PRES   REMARKS
ALAMOSA        CLOUDY    50  26  39 W10       29.99F
LA VETA PASS   LGT SNOW  34  27  75 S6        30.04F WCI  29
SAGUACHE       MOSUNNY   52  28  40 NW26G32   29.98F
$$

COZ035-036-038>040-202000-
...NORTHERN COLORADO FRONT RANGE...

CITY           SKY/WX    TMP DP  RH WIND       PRES   REMARKS
DENVER INTL AP MOSUNNY   49  26  41 CALM      29.96F
DMNS CITY PARK   N/A     53  29  39 N5G13     29.94F
AURORA         MOSUNNY   49  28  44 VRB6      29.96F
FRONT RANGE AP MOSUNNY   50  30  46 N5        29.97F
ERIE MUNI ARPT MOSUNNY   51  30  44 E7        29.96F
BOULDER MUN AP PTSUNNY   50  30  46 E3        29.95F
CENTENNIAL     MOSUNNY   49  28  44 SE6       29.95F
BROOMFIELD     MOSUNNY   48  27  43 CALM      29.97F
FORT COLLINS   SUNNY     48  32  53 W7        29.97F
LONGMONT       MOSUNNY   53  33  45 E3        29.97F
$$

COZ041-046-047-076>085-087-088-202000-
...PIKES PEAK/PALMER DIVIDE AND SOUTHERN FOOTHILLS...

CITY           SKY/WX    TMP DP  RH WIND       PRES   REMARKS
COLO. SPRINGS  MOSUNNY   49  30  48 S9G16     29.97F
A. F. ACADEMY  MOSUNNY   49  30  47 S9        29.95F
ELLICOTT       MOSUNNY  N/A N/A N/A VRB6      29.96F
FALCON         CLOUDY    49  29  45 SE6       29.98F
FORT CARSON    MOSUNNY   48  32  53 SE9       29.96F
LIMON          MOSUNNY   50  28  42 MISG      29.96F
MONUMENT HILL  MOSUNNY   43  27  52 N3        29.95F
TRINIDAD       MOSUNNY   56  32  40 VRB3      29.95F
$$

COZ042>045-048>051-090-091-202000-
...NORTHEAST COLORADO...

CITY           SKY/WX    TMP DP  RH WIND       PRES   REMARKS
GREELEY ARPT   MOSUNNY   48  30  49 CALM      29.96F
AKRON          MOSUNNY   51  27  39 W9G23     29.95F
BURLINGTON     CLOUDY    52  29  41 NW14      29.97F
WRAY           PTSUNNY   56  25  30 W15G22    29.95F
STERLING       PTSUNNY   54  28  37 NW10G21   29.93F
HOLYOKE        MOSUNNY   59  27  29 NW13G24   29.94F
FORT MORGAN    MOSUNNY   52  25  35 CALM      29.96F
$$

COZ086-089-092>099-202000-
...SOUTHEAST COLORADO...

CITY           SKY/WX    TMP DP  RH WIND       PRES   REMARKS
PUEBLO         MOSUNNY   53  27  36 VRB3      29.95F
LA JUNTA       SUNNY     54  31  41 VRB5      29.97F
LAMAR          MOSUNNY   52  31  44 VRB5      29.97F
SPRINGFIELD      N/A     56  29  35 SE6       29.95F
$$


USA.gov is the U.S. government's official web portal to all federal, state and local government web resources and services.